Location: Hurecourt
(47.9030°N, 6.0653°E)
Time: 08:45:06
(UTC+00:00)

Cosmos 1459 Rocket - Pass Details

Date: 14 July 2020
Orbit: 938 x 999 km, 83.0° (Epoch: 14 August)

Event Time Altitude Azimuth Distance (km) Brightness Sun altitude
Exits shadow 00:52:48 28° 172° (S) 1,698 4.8 -18.7°
Maximum altitude 00:56:09 71° 95° (E) 1,004 4.1 -18.5°
Drops below altitude 10° 01:02:18 10° 13° (NNE) 2,708 7.6 -18.1°
Sets 01:04:50 0° 11° (N) 3,668 8.6 -18.0°
